Time,TemperatureF,DewpointF,PressureIn,WindDirection,WindDirectionDegrees,WindSpeedMPH,WindSpeedGustMPH,Humidity,HourlyPrecipIn,Conditions,Clouds,dailyrainin,SoftwareType,DateUTC
2013-05-28 00:13:00,64.5,63.0,29.57,East,83,7.0,16.0,95,0.02,,,0.00,weatherlink.com 1.10,2013-05-28 05:13:00,
2013-05-28 00:28:00,64.3,63.0,29.57,East,80,10.0,16.0,95,0.00,,,0.00,weatherlink.com 1.10,2013-05-28 05:28:00,
2013-05-28 00:43:00,64.4,63.0,29.60,ENE,67,5.0,7.0,95,0.00,,,0.00,weatherlink.com 1.10,2013-05-28 05:43:00,
2013-05-28 00:58:00,64.4,63.0,29.60,East,96,0.0,6.0,94,0.00,,,0.00,weatherlink.com 1.10,2013-05-28 05:58:00,
2013-05-28 01:13:00,64.4,63.0,29.62,ENE,75,0.0,5.0,94,0.00,,,0.00,weatherlink.com 1.10,2013-05-28 06:13:00,
2013-05-28 01:28:00,64.1,62.0,29.61,ENE,75,0.0,3.0,94,0.00,,,0.00,weatherlink.com 1.10,2013-05-28 06:28:00,
2013-05-28 01:43:00,63.8,62.0,29.61,SSE,165,0.0,4.0,94,0.00,,,0.00,weatherlink.com 1.10,2013-05-28 06:43:00,
2013-05-28 01:58:00,63.6,62.0,29.60,SE,128,0.0,2.0,95,0.00,,,0.00,weatherlink.com 1.10,2013-05-28 06:58:00,
2013-05-28 02:13:00,63.4,62.0,29.61,SE,128,0.0,2.0,95,0.00,,,0.00,weatherlink.com 1.10,2013-05-28 07:13:00,
2013-05-28 02:28:00,63.0,62.0,29.60,SE,128,0.0,0.0,95,0.00,,,0.00,weatherlink.com 1.10,2013-05-28 07:28:00,
2013-05-28 02:43:00,62.8,62.0,29.61,SE,128,0.0,0.0,96,0.00,,,0.00,weatherlink.com 1.10,2013-05-28 07:43:00,
2013-05-28 02:58:00,62.8,62.0,29.59,SE,128,0.0,0.0,96,0.00,,,0.00,weatherlink.com 1.10,2013-05-28 07:58:00,
2013-05-28 03:14:00,62.2,61.0,29.59,SE,128,0.0,0.0,96,0.00,,,0.00,weatherlink.com 1.10,2013-05-28 08:14:00,
2013-05-28 03:29:00,61.6,61.0,29.59,NW,306,2.0,6.0,96,0.00,,,0.00,weatherlink.com 1.10,2013-05-28 08:29:00,
2013-05-28 03:44:00,61.2,60.0,29.61,WNW,302,0.0,5.0,97,0.00,,,0.00,weatherlink.com 1.10,2013-05-28 08:44:00,
2013-05-28 03:59:00,61.4,61.0,29.62,WNW,302,5.0,7.0,97,0.00,,,0.00,weatherlink.com 1.10,2013-05-28 08:59:00,
2013-05-28 04:14:00,61.0,60.0,29.63,NW,317,4.0,11.0,97,0.00,,,0.00,weatherlink.com 1.10,2013-05-28 09:14:00,
2013-05-28 04:29:00,60.9,60.0,29.63,WNW,294,3.0,8.0,97,0.00,,,0.00,weatherlink.com 1.10,2013-05-28 09:29:00,
2013-05-28 04:44:00,60.8,60.0,29.64,NW,307,0.0,6.0,98,0.00,,,0.00,weatherlink.com 1.10,2013-05-28 09:44:00,
2013-05-28 04:59:00,60.6,60.0,29.63,ENE,65,0.0,8.0,97,0.00,,,0.00,weatherlink.com 1.10,2013-05-28 09:59:00,
2013-05-28 05:14:00,60.5,60.0,29.64,NNW,344,0.0,0.0,97,0.00,,,0.00,weatherlink.com 1.10,2013-05-28 10:14:00,
2013-05-28 05:29:00,60.5,60.0,29.65,NW,311,3.0,5.0,97,0.00,,,0.00,weatherlink.com 1.10,2013-05-28 10:29:00,
2013-05-28 05:44:00,60.5,60.0,29.64,NW,315,0.0,0.0,97,0.00,,,0.00,weatherlink.com 1.10,2013-05-28 10:44:00,
2013-05-28 05:59:00,60.6,60.0,29.64,NW,323,1.0,3.0,97,0.00,,,0.00,weatherlink.com 1.10,2013-05-28 10:59:00,
2013-05-28 06:14:00,60.6,60.0,29.64,NW,317,0.0,0.0,97,0.00,,,0.00,weatherlink.com 1.10,2013-05-28 11:14:00,
2013-05-28 06:29:00,60.4,60.0,29.64,WNW,298,1.0,11.0,97,0.00,,,0.00,weatherlink.com 1.10,2013-05-28 11:29:00,
2013-05-28 06:44:00,59.6,59.0,29.63,WNW,298,0.0,9.0,97,0.00,,,0.00,weatherlink.com 1.10,2013-05-28 11:44:00,
2013-05-28 06:59:00,59.7,59.0,29.62,SE,140,0.0,0.0,97,0.00,,,0.00,weatherlink.com 1.10,2013-05-28 11:59:00,
2013-05-28 07:14:00,59.8,59.0,29.62,SE,138,0.0,0.0,96,0.00,,,0.00,weatherlink.com 1.10,2013-05-28 12:14:00,
2013-05-28 07:29:00,60.7,60.0,29.61,SE,138,0.0,0.0,97,0.00,,,0.00,weatherlink.com 1.10,2013-05-28 12:29:00,
2013-05-28 07:44:00,62.0,61.0,29.61,SE,138,0.0,0.0,95,0.00,,,0.00,weatherlink.com 1.10,2013-05-28 12:44:00,
2013-05-28 07:59:00,63.5,61.0,29.62,SE,138,0.0,0.0,91,0.00,,,0.00,weatherlink.com 1.10,2013-05-28 12:59:00,
2013-05-28 08:14:00,64.1,61.0,29.62,SSE,153,3.0,5.0,90,0.00,,,0.00,weatherlink.com 1.10,2013-05-28 13:14:00,
2013-05-28 08:29:00,64.0,61.0,29.62,South,178,2.0,6.0,91,0.00,,,0.00,weatherlink.com 1.10,2013-05-28 13:29:00,
2013-05-28 08:44:00,65.3,62.0,29.62,South,171,4.0,6.0,90,0.00,,,0.00,weatherlink.com 1.10,2013-05-28 13:44:00,
2013-05-28 08:59:00,66.6,63.0,29.61,SSW,193,4.0,5.0,89,0.00,,,0.00,weatherlink.com 1.10,2013-05-28 13:59:00,
2013-05-28 09:14:00,68.2,64.0,29.61,SSW,198,1.0,6.0,85,0.00,,,0.00,weatherlink.com 1.10,2013-05-28 14:14:00,
2013-05-28 09:29:00,68.9,63.0,29.61,SSW,207,2.0,5.0,81,0.00,,,0.00,weatherlink.com 1.10,2013-05-28 14:29:00,
2013-05-28 09:44:00,70.3,64.0,29.60,SSW,192,1.0,3.0,80,0.00,,,0.00,weatherlink.com 1.10,2013-05-28 14:44:00,
2013-05-28 09:59:00,70.3,64.0,29.60,SW,217,3.0,3.0,80,0.00,,,0.00,weatherlink.com 1.10,2013-05-28 14:59:00,
2013-05-28 10:14:00,70.0,64.0,29.61,WNW,294,0.0,6.0,82,0.00,,,0.00,weatherlink.com 1.10,2013-05-28 15:14:00,
2013-05-28 10:29:00,71.1,65.0,29.61,NNW,328,3.0,8.0,80,0.00,,,0.00,weatherlink.com 1.10,2013-05-28 15:29:00,
2013-05-28 10:44:00,71.9,65.0,29.61,WNW,302,4.0,8.0,78,0.00,,,0.00,weatherlink.com 1.10,2013-05-28 15:44:00,
2013-05-28 10:59:00,71.0,64.0,29.62,ENE,75,2.0,11.0,79,0.00,,,0.00,weatherlink.com 1.10,2013-05-28 15:59:00,
2013-05-28 11:14:00,71.3,64.0,29.63,NE,55,2.0,7.0,78,0.00,,,0.00,weatherlink.com 1.10,2013-05-28 16:14:00,
2013-05-28 11:29:00,71.2,64.0,29.64,NW,311,4.0,10.0,79,0.00,,,0.00,weatherlink.com 1.10,2013-05-28 16:29:00,
2013-05-28 11:44:00,70.8,63.0,29.65,WNW,299,0.0,9.0,77,0.00,,,0.00,weatherlink.com 1.10,2013-05-28 16:44:00,
2013-05-28 11:59:00,72.1,65.0,29.65,North,351,3.0,7.0,78,0.00,,,0.00,weatherlink.com 1.10,2013-05-28 16:59:00,
2013-05-28 12:14:00,71.2,64.0,29.65,NW,311,4.0,10.0,79,0.00,,,0.00,weatherlink.com 1.10,2013-05-28 17:14:00,
2013-05-28 12:29:00,70.5,64.0,29.64,WNW,285,0.0,8.0,80,0.00,,,0.00,weatherlink.com 1.10,2013-05-28 17:29:00,
2013-05-28 12:44:00,71.2,65.0,29.64,NNW,348,7.0,10.0,80,0.00,,,0.00,weatherlink.com 1.10,2013-05-28 17:44:00,
2013-05-28 12:59:00,71.6,64.0,29.64,NNW,334,0.0,7.0,78,0.00,,,0.00,weatherlink.com 1.10,2013-05-28 17:59:00,
2013-05-28 13:14:00,72.0,64.0,29.64,NNW,345,0.0,9.0,76,0.00,,,0.00,weatherlink.com 1.10,2013-05-28 18:14:00,
2013-05-28 13:29:00,71.8,63.0,29.64,NNW,348,5.0,7.0,74,0.00,,,0.00,weatherlink.com 1.10,2013-05-28 18:29:00,
2013-05-28 13:45:00,72.3,64.0,29.64,NNE,13,2.0,7.0,74,0.00,,,0.00,weatherlink.com 1.10,2013-05-28 18:45:00,
2013-05-28 14:00:00,72.7,63.0,29.65,NNE,19,0.0,7.0,71,0.00,,,0.00,weatherlink.com 1.10,2013-05-28 19:00:00,
2013-05-28 14:15:00,73.1,64.0,29.65,ENE,63,1.0,8.0,73,0.00,,,0.00,weatherlink.com 1.10,2013-05-28 19:15:00,
2013-05-28 14:30:00,72.6,63.0,29.65,NE,37,0.0,6.0,71,0.00,,,0.00,weatherlink.com 1.10,2013-05-28 19:30:00,
2013-05-28 14:45:00,72.7,63.0,29.65,East,86,3.0,6.0,72,0.00,,,0.00,weatherlink.com 1.10,2013-05-28 19:45:00,
2013-05-28 15:00:00,72.8,62.0,29.66,East,81,0.0,4.0,70,0.00,,,0.00,weatherlink.com 1.10,2013-05-28 20:00:00,
2013-05-28 15:15:00,73.0,63.0,29.67,ENE,70,1.0,6.0,72,0.00,,,0.00,weatherlink.com 1.10,2013-05-28 20:15:00,
2013-05-28 15:30:00,72.6,62.0,29.67,ENE,75,1.0,2.0,70,0.00,,,0.00,weatherlink.com 1.10,2013-05-28 20:30:00,
2013-05-28 15:45:00,72.3,63.0,29.68,NW,311,0.0,4.0,73,0.00,,,0.00,weatherlink.com 1.10,2013-05-28 20:45:00,
2013-05-28 16:00:00,72.5,63.0,29.67,NNE,25,4.0,4.0,72,0.00,,,0.00,weatherlink.com 1.10,2013-05-28 21:00:00,
2013-05-28 16:15:00,72.6,63.0,29.66,NNE,17,3.0,7.0,72,0.00,,,0.00,weatherlink.com 1.10,2013-05-28 21:15:00,
2013-05-28 16:30:00,73.0,62.0,29.65,NNE,22,0.0,5.0,68,0.00,,,0.00,weatherlink.com 1.10,2013-05-28 21:30:00,
2013-05-28 16:45:00,73.7,62.0,29.64,North,5,0.0,0.0,67,0.00,,,0.00,weatherlink.com 1.10,2013-05-28 21:45:00,
2013-05-28 17:00:00,74.5,61.0,29.62,NW,313,2.0,5.0,63,0.00,,,0.00,weatherlink.com 1.10,2013-05-28 22:00:00,
2013-05-28 17:15:00,74.8,62.0,29.61,North,360,3.0,8.0,65,0.00,,,0.00,weatherlink.com 1.10,2013-05-28 22:15:00,
2013-05-28 17:30:00,74.9,63.0,29.59,North,5,0.0,8.0,66,0.00,,,0.00,weatherlink.com 1.10,2013-05-28 22:30:00,
2013-05-28 17:45:00,75.0,63.0,29.60,East,85,7.0,9.0,67,0.00,,,0.00,weatherlink.com 1.10,2013-05-28 22:45:00,
2013-05-28 18:00:00,75.1,64.0,29.60,East,93,0.0,13.0,68,0.00,,,0.00,weatherlink.com 1.10,2013-05-28 23:00:00,
2013-05-28 18:15:00,75.5,64.0,29.61,NE,51,7.0,10.0,68,0.00,,,0.00,weatherlink.com 1.10,2013-05-28 23:15:00,
2013-05-28 18:45:00,76.1,65.0,29.59,NNW,334,4.0,9.0,69,0.00,,,0.00,weatherlink.com 1.10,2013-05-28 23:45:00,
2013-05-28 19:00:00,75.8,65.0,29.58,NNE,32,4.0,10.0,69,0.00,,,0.00,weatherlink.com 1.10,2013-05-29 00:00:00,
2013-05-28 19:15:00,75.3,64.0,29.58,East,88,8.0,13.0,67,0.00,,,0.00,weatherlink.com 1.10,2013-05-29 00:15:00,
2013-05-28 19:30:00,75.1,64.0,29.59,ENE,71,0.0,10.0,69,0.00,,,0.00,weatherlink.com 1.10,2013-05-29 00:30:00,
2013-05-28 19:45:00,74.8,64.0,29.58,NE,50,3.0,7.0,69,0.00,,,0.00,weatherlink.com 1.10,2013-05-29 00:45:00,
2013-05-28 20:00:00,74.6,64.0,29.58,ENE,60,2.0,10.0,70,0.00,,,0.00,weatherlink.com 1.10,2013-05-29 01:00:00,
2013-05-28 20:15:00,74.3,65.0,29.59,East,82,2.0,9.0,72,0.00,,,0.00,weatherlink.com 1.10,2013-05-29 01:15:00,
2013-05-28 20:30:00,73.9,64.0,29.60,ENE,78,2.0,8.0,72,0.00,,,0.00,weatherlink.com 1.10,2013-05-29 01:30:00,
2013-05-28 20:45:00,73.3,65.0,29.61,East,95,1.0,9.0,74,0.00,,,0.00,weatherlink.com 1.10,2013-05-29 01:45:00,
2013-05-28 21:00:00,72.6,65.0,29.62,East,92,3.0,6.0,76,0.00,,,0.00,weatherlink.com 1.10,2013-05-29 02:00:00,
2013-05-28 21:15:00,72.0,65.0,29.62,East,98,2.0,5.0,78,0.00,,,0.00,weatherlink.com 1.10,2013-05-29 02:15:00,
2013-05-28 21:30:00,71.5,65.0,29.62,East,98,0.0,5.0,80,0.00,,,0.00,weatherlink.com 1.10,2013-05-29 02:30:00,
2013-05-28 21:45:00,71.5,65.0,29.63,East,98,0.0,0.0,80,0.00,,,0.00,weatherlink.com 1.10,2013-05-29 02:45:00,
2013-05-28 22:00:00,71.7,65.0,29.63,SE,133,0.0,5.0,79,0.00,,,0.00,weatherlink.com 1.10,2013-05-29 03:00:00,
2013-05-28 22:15:00,71.7,65.0,29.63,SSE,148,0.0,5.0,79,0.00,,,0.00,weatherlink.com 1.10,2013-05-29 03:15:00,
2013-05-28 22:30:00,71.6,65.0,29.61,SE,133,0.0,0.0,79,0.00,,,0.00,weatherlink.com 1.10,2013-05-29 03:30:00,
2013-05-28 22:45:00,70.4,65.0,29.60,SE,133,1.0,3.0,82,0.00,,,0.00,weatherlink.com 1.10,2013-05-29 03:45:00,
2013-05-28 23:00:00,69.6,65.0,29.60,ESE,116,0.0,0.0,84,0.00,,,0.00,weatherlink.com 1.10,2013-05-29 04:00:00,
2013-05-28 23:15:00,69.3,65.0,29.61,ESE,116,0.0,0.0,85,0.00,,,0.00,weatherlink.com 1.10,2013-05-29 04:15:00,
2013-05-28 23:30:00,68.5,65.0,29.62,ESE,103,3.0,6.0,87,0.00,,,0.00,weatherlink.com 1.10,2013-05-29 04:30:00,
2013-05-28 23:45:00,68.0,65.0,29.62,East,99,2.0,9.0,89,0.00,,,0.00,weatherlink.com 1.10,2013-05-29 04:45:00,